{"data":{"norad_id":65172,"intl_designator":"2025-174J","name":"HULIANWANG DIGUI-66","alt_names":[],"object_type":"PAYLOAD","status":"ACTIVE","operator":null,"country":"PRC","launch_date":"2025-08-13","launch_site_code":"WSC","launch_vehicle":null,"mission":null,"orbit_class":"UNKNOWN","rcs_meters":null,"size_class":null,"mass_kg":null,"dimensions":null,"purposes":[],"wikipedia_slug":null,"has_3d_model":false,"image_url":null,"decayed_at":null,"tle_current":{"epoch":"2026-09-21T20:53:28.594176Z","epoch_age_seconds":46540,"freshness":"FRESH","line1":"1 65172U 25174J   26264.87046984  .00000021  00000+0  13929-4 0  9996","line2":"2 65172  86.4945 219.2294 0002206  74.5012 285.6366 13.24399828 53583","mean_motion":13.24399828,"eccentricity":0.0002206,"inclination_deg":86.4945,"raan_deg":219.2294,"arg_perigee_deg":74.5012,"mean_anomaly_deg":285.6366,"bstar":1.3929e-5,"rev_number":5358,"period_min":108.72849494209,"perigee_km":1166.2961545349,"apogee_km":1169.6254928947,"semimajor_km":7546.0978237148,"source":"CELESTRAK","updated_at":"2026-09-22T09:00:30.168677Z"}}}